Skip Page Navigation
NASA JPL Caltech
NASA Logo - Jet Propulsion Laboratory + View the NASA Portal
+ Near-Earth Object (NEO) Program
Search JPL
JPL Home Earth Solar System Stars & Galaxies Technology
JPL Solar System Dynamics
BODIES ORBITS EPHEMERIDES TOOLS PHYSICAL DATA DISCOVERY FAQ SITE MAP
JPL Small-Body Database Browser
Search: [ help ]  
59241 (1999 CC4)
Classification: Main-belt Asteroid          SPK-ID: 2059241
Ephemeris | Orbit Diagram | Orbital Elements | Physical Parameters | Discovery Circumstances | Close-Approach Data ]

[ show orbit diagram ]
Orbital Elements at Epoch 2456800.5 (2014-May-23.0) TDB
Reference: JPL 3 (heliocentric ecliptic J2000)
 Element Value Uncertainty (1-sigma)   Units 
e .1135735167580587 6.5279e-08  
a 2.303717008358746 1.5426e-08 AU
q 2.04207576610409 1.4741e-07 AU
i 5.522693537391806 7.4193e-06 deg
node 138.8497162424838 5.8273e-05 deg
peri 343.5908824018328 6.8201e-05 deg
M 144.3591333911396 3.1397e-05 deg
tp 2456288.365674141502
(2012-Dec-26.86567414)
0.00011156 JED
period 1277.150624127917
3.50
1.2828e-05
3.512e-08
d
yr
n .2818774803839763 2.8313e-09 deg/d
Q 2.565358250613403 1.7178e-08 AU
  Orbit Determination Parameters
   # obs. used (total)      791  
   data-arc span      5264 days (14.41 yr)  
   first obs. used      1998-11-26  
   last obs. used      2013-04-25  
   planetary ephem.      DE431  
   SB-pert. ephem.      SB431-BIG16  
   condition code      0  
   fit RMS      .5659  
   data source      ORB  
   producer      Otto Matic  
   solution date      2013-Aug-06 06:59:24  

Additional Information
 Earth MOID = 1.05821 AU 
 T_jup = 3.575 
[ show covariance matrix ]

Ephemeris | Orbit Diagram | Orbital Elements | Physical Parameters | Discovery Circumstances | Close-Approach Data ]

Physical Parameter Table
Parameter Symbol Value Units Sigma Reference Notes
absolute magnitude H 14.9 mag n/a MPO263807  

59241 (1999 CC4)          Discovered 1999-Feb-06 by Beijing Schmidt CCD Asteroid Program at Xinglong (327)
Reference: 20030614/Numbers.arcLast Updated: 2004-04-19

[ show close-approach data ]
Alternate Designations
 1999 CC4 = 2001 QX263 
Ephemeris | Orbit Diagram | Orbital Elements | Physical Parameters | Discovery Circumstances | Close-Approach Data ]
ABOUT SSD CREDITS/AWARDS PRIVACY/COPYRIGHT GLOSSARY LINKS
FirstGov 2014-Apr-16 21:56 UT
(server date/time)  
NASA Home Page
Site Manager:   Donald K. Yeomans
Webmaster  Alan B. Chamberlin